Theta_e
336 334 334 333 335 336 334 334 333 334 335 337 337 337 338 337 337 338 337 336 335 336 337 336 336 338 338 338 338 338 338 338 337 337 337 336 336 337 337 336 337 337 339
336 333 333 333 336 337 335 333 333 333 335 337 338 338 338 338 337 337 337 336 336 336 336 336 337 337 338 338 338 338 338 337 337 337 337 336 336 336 337 336 337 337 337
336 334 334 335 335 336 335 333 333 332 333 336 337 337 338 338 338 338 337 337 337 337 338 336 335 338 338 338 338 338 337 336 336 335 335 335 336 336 335 336 335 335 334
336 335 335 335 334 334 334 333 333 333 333 333 336 336 336 336 337 337 337 336 336 336 336 335 335 336 335 335 334 335 335 335 334 333 333 332 332 333 332 333 332 331 330
338 336 335 336 335 334 332 334 333 333 333 333 333 334 333 332 333 333 334 335 335 335 335 335 334 333 333 333 334 334 334 333 333 332 332 333 332 331 331 331 331 331 330
339 337 337 336 336 334 332 334 334 333 332 331 331 331 330 331 330 331 331 332 332 332 332 332 331 331 331 331 330 329 330 331 330 330 330 329 328 328 328 328 328 327 326
341 338 338 336 336 334 332 333 334 333 332 331 328 329 329 329 329 330 330 331 331 330 330 329 327 325 324 324 325 326 327 328 328 329 328 328 327 327 327 326 326 325 324
340 341 339 337 336 335 333 333 333 332 331 330 328 327 327 326 326 326 326 326 327 326 325 323 322 320 319 318 320 322 324 324 324 323 322 322 322 321 320 322 323 323 322
339 341 342 339 337 336 334 333 333 332 331 330 329 326 326 324 324 324 325 325 324 322 322 321 320 319 315 313 313 314 314 313 312 313 314 313 312 312 312 314 315 317 317
341 341 341 341 337 337 335 334 334 333 331 330 328 328 325 323 323 323 324 324 324 323 321 320 319 319 316 316 316 315 315 314 314 313 313 312 312 312 312 312 313 313 313
332 334 339 339 337 338 336 335 334 333 332 329 328 327 325 324 323 323 323 322 322 321 320 319 318 316 317 317 317 315 315 313 312 312 311 309 308 308 306 305 304 306 307
329 331 337 336 337 338 336 335 334 333 329 329 328 327 325 324 323 322 320 318 318 319 319 318 317 317 316 316 315 314 312 311 309 305 304 302 301 300 300 299 299 299 299
331 333 334 334 337 336 335 334 333 331 329 328 326 325 324 322 321 320 319 316 315 316 316 315 314 311 306 305 303 303 303 302 302 301 300 299 298 298 298 299 298 298 298
331 330 331 331 330 332 329 329 329 326 326 325 324 323 322 320 319 319 317 315 315 314 312 305 302 301 300 299 299 299 299 299 299 299 299 298 298 298 298 299 299 300 301
329 329 329 329 328 327 324 323 324 323 322 321 321 320 320 319 317 315 314 312 308 305 303 301 302 301 301 300 298 298 299 299 299 298 298 298 298 298 298 298 298 299 299
328 327 326 325 324 324 323 323 321 320 319 318 318 318 317 315 312 306 304 302 301 301 302 302 302 302 301 301 301 300 299 298 298 298 297 297 297 297 297 297 298 298 298
325 324 323 321 320 319 318 318 318 316 316 314 312 312 311 308 303 302 301 300 300 300 301 301 301 301 300 300 299 299 298 297 296 297 297 296 296 296 296 296 297 298 298
321 317 310 305 303 302 301 301 301 301 301 302 303 303 303 302 301 300 300 299 300 300 301 301 301 300 300 299 299 298 298 297 297 297 297 296 296 295 296 296 296 297 298
305 306 308 308 308 307 307 307 306 305 301 299 300 301 302 302 301 301 300 303 302 302 301 301 300 299 298 297 297 297 297 298 297 297 297 297 297 296 296 295 295 294 295
309 309 309 309 309 308 308 308 307 306 304 301 301 302 302 301 301 301 300 300 301 302 302 301 301 299 298 297 297 298 298 297 297 297 297 297 296 296 295 295 295 295 296
310 309 309 309 309 309 308 308 307 307 305 304 301 301 301 301 301 301 301 299 301 301 301 300 300 300 299 298 298 298 298 298 297 297 297 296 296 296 295 294 294 295 295
310 310 310 310 310 310 310 309 309 308 307 306 304 302 301 300 300 301 301 300 299 299 299 299 299 299 299 299 299 298 298 298 297 297 297 296 296 296 294 294 294 295 295
310 311 311 311 312 312 311 311 310 309 309 308 307 305 303 301 301 301 301 300 300 300 299 299 298 298 297 296 298 298 298 298 298 297 297 296 296 295 293 294 294 295 295
312 312 313 312 311 311 311 312 311 311 310 308 307 307 306 304 302 302 301 300 300 300 300 299 298 298 298 297 297 297 298 296 294 295 294 296 295 294 291 293 294 294 294
313 311 313 314 315 311 311 312 312 311 311 308 307 306 306 306 305 304 303 302 301 300 300 300 299 299 298 298 298 298 298 297 293 292 291 292 293 291 292 293 294 294 294
313 312 310 308 307 307 309 309 312 311 311 311 310 309 307 307 306 306 305 304 303 302 301 300 300 300 299 299 298 298 297 298 295 294 292 292 292 292 291 293 295 294 295
Wind_Speed
5 3 2 3 8 8 9 10 11 12 12 11 9 5 2 2 4 6 7 8 10 10 12 14 17 19 20 20 21 23 23 22 22 21 16 14 13 11 11 10 11 14 15
5 3 2 4 5 7 8 9 10 12 12 12 12 9 4 2 1 1 3 5 6 7 10 11 13 16 20 21 19 19 26 25 28 17 13 14 13 13 10 8 7 8 9
6 3 1 2 3 5 7 7 8 11 12 11 10 12 11 9 6 5 5 4 1 3 3 4 3 9 13 16 17 17 14 8 6 4 1 2 5 6 6 8 6 3 2
7 4 3 2 2 4 4 5 6 8 10 12 12 12 12 11 10 8 7 6 4 4 5 4 2 1 1 1 2 1 2 2 1 5 4 3 4 4 6 6 4 4 4
7 7 6 3 3 3 3 3 4 6 8 10 10 10 12 11 14 13 11 10 9 6 4 4 3 2 1 1 1 3 4 3 2 1 3 5 5 5 6 7 9 9 9
10 11 9 7 5 3 1 2 2 5 7 7 7 9 9 10 10 7 7 7 9 10 9 8 8 7 6 4 2 1 1 0 0 2 2 4 5 5 6 6 5 4 4
14 14 12 11 8 5 3 2 3 4 6 6 7 8 9 10 10 7 6 7 8 8 9 9 9 10 9 9 8 6 5 4 3 4 4 3 4 5 5 4 1 3 3
18 18 16 15 14 9 7 4 4 4 4 4 4 5 7 11 12 10 8 8 8 9 10 10 10 11 12 11 10 9 10 10 10 8 9 9 8 7 7 8 7 4 3
19 21 22 20 20 14 11 8 6 6 4 2 2 4 5 6 10 10 9 7 7 9 9 10 9 8 10 9 7 9 9 12 11 9 9 9 8 8 7 8 7 6 4
16 18 21 25 21 18 14 11 8 6 6 3 4 6 4 3 6 5 6 5 5 6 7 7 6 5 5 5 4 5 5 8 8 8 7 7 7 7 5 5 4 3 3
12 13 14 21 23 21 17 14 11 8 8 5 4 6 7 5 4 3 2 4 4 5 6 5 5 5 2 4 4 3 4 7 7 6 6 6 6 6 6 6 6 7 6
7 6 11 18 21 23 19 16 12 10 10 8 6 7 9 7 5 5 6 5 5 4 5 6 4 1 3 1 2 4 6 5 6 7 6 7 8 8 8 8 7 6 5
2 3 7 12 19 21 20 18 17 13 12 10 8 9 9 6 5 5 5 6 6 5 5 4 5 5 5 6 8 7 6 5 6 7 8 8 9 10 9 8 8 8 7
2 1 4 5 11 13 15 12 11 10 10 8 8 7 7 7 6 4 6 7 6 6 7 9 9 7 6 7 7 8 8 8 8 9 9 9 9 8 8 7 7 6 6
2 3 4 5 7 9 10 10 11 10 8 5 6 6 6 8 9 10 8 9 9 9 9 8 7 8 8 9 8 8 8 8 8 8 8 8 8 7 7 7 7 6 5
6 7 8 10 10 9 8 8 9 8 8 8 7 6 8 9 11 11 9 8 8 7 6 7 6 6 6 6 6 5 6 6 7 8 8 8 7 6 6 6 6 5 5
11 13 15 14 13 13 11 9 7 8 8 8 7 9 9 10 10 9 8 8 9 10 7 6 5 4 4 4 4 4 4 6 7 6 7 7 6 5 6 5 5 5 4
17 17 18 17 16 16 14 13 10 8 6 6 8 10 11 11 10 10 9 9 7 8 6 5 4 4 3 3 3 4 4 4 4 4 5 6 6 5 4 4 4 3 2
22 23 23 22 21 20 18 16 13 11 7 5 7 9 10 10 9 9 7 5 4 3 3 3 3 2 2 2 2 2 2 3 2 1 1 2 4 3 3 2 3 3 2
24 23 21 19 17 15 13 12 11 10 8 4 6 7 9 8 6 5 5 4 3 4 5 5 6 6 5 4 1 1 1 3 4 3 3 2 3 3 3 2 2 1 1
21 17 14 12 10 8 6 4 3 2 3 3 2 5 6 7 6 5 4 3 4 5 5 6 7 9 10 9 7 4 3 3 4 6 6 6 5 4 4 3 2 2 3
12 9 6 3 1 1 2 3 4 4 4 3 1 3 6 8 7 7 7 6 8 9 8 7 8 9 9 10 9 7 6 6 6 7 9 8 7 6 5 4 4 4 5
7 4 3 4 6 8 10 11 11 10 10 8 8 8 8 8 10 10 11 10 9 9 11 9 9 8 7 8 8 7 8 9 10 11 11 10 9 8 6 6 6 6 5
8 6 7 9 11 13 14 13 12 12 11 10 12 13 13 11 10 10 11 13 15 12 10 9 8 9 9 9 9 8 9 10 12 12 14 11 10 10 8 8 7 7 6
7 6 6 9 14 13 13 13 14 13 12 13 13 12 12 13 14 15 15 16 17 17 15 12 11 9 10 13 12 12 12 12 11 11 12 12 11 11 9 9 9 8 8
4 6 9 11 12 13 15 15 12 12 12 14 17 18 20 20 19 18 18 16 17 19 20 19 16 14 13 13 14 16 17 15 12 10 11 11 11 11 11 11 10 8 9
Wind_Direction
199 204 224 332 349 352 355 2 14 16 13 15 17 13 316 245 244 239 237 237 238 239 236 242 246 246 247 248 245 240 245 253 259 270 263 275 287 297 289 274 257 250 234
196 199 223 335 353 348 354 12 27 28 28 34 35 44 62 91 144 210 235 233 233 234 245 250 253 252 248 246 244 252 263 264 259 244 260 271 283 286 275 258 247 248 261
186 182 173 308 342 343 356 17 29 37 43 47 49 63 74 80 85 93 95 120 173 225 149 83 353 273 246 257 265 260 238 256 264 277 222 341 281 259 227 219 206 208 288
181 160 166 247 314 340 2 24 42 44 51 59 66 74 75 76 78 82 88 92 101 97 107 122 101 23 26 117 160 195 201 195 240 295 307 319 295 291 288 275 266 305 292
179 169 177 209 255 318 22 55 65 57 57 63 68 77 84 80 76 74 79 88 86 95 115 135 127 120 124 156 224 228 221 248 182 258 253 224 214 196 235 251 255 251 244
199 190 195 198 223 261 109 117 105 89 81 69 70 69 85 83 74 73 72 88 97 97 102 105 105 99 98 96 97 100 212 188 304 284 306 325 331 316 307 314 324 255 237
217 209 216 219 219 230 183 175 150 127 101 75 75 82 89 91 85 82 75 84 104 107 103 101 100 92 88 78 71 68 92 98 91 67 54 22 17 27 30 34 57 332 297
231 229 229 228 227 223 209 187 178 159 126 104 109 114 109 101 89 77 70 83 95 102 105 101 99 99 88 76 69 74 84 89 81 74 74 71 67 68 63 67 66 67 135
233 238 241 228 227 221 220 205 195 185 173 155 152 120 114 109 97 80 72 81 95 105 105 105 96 87 83 77 79 76 80 81 78 68 61 58 57 53 61 65 61 57 60
239 240 233 233 223 224 223 216 201 196 192 183 176 158 157 123 116 97 69 78 105 114 115 112 95 74 77 67 52 60 76 90 81 76 74 73 66 60 46 47 52 54 68
254 249 233 230 220 220 219 214 209 202 202 195 194 189 186 178 165 149 134 134 133 137 135 127 111 96 35 1 10 59 89 88 82 69 63 58 46 28 22 22 29 54 50
267 251 225 225 223 218 217 214 207 202 197 189 184 193 191 190 195 196 170 144 138 137 138 129 123 92 303 332 96 89 82 71 67 64 50 39 38 32 32 36 39 46 58
267 233 230 231 219 211 216 205 203 197 205 190 182 184 185 189 184 178 160 153 144 148 151 151 136 110 102 106 96 95 92 83 72 69 59 46 42 42 44 43 46 48 47
133 178 221 223 199 205 199 189 215 194 173 178 180 182 184 174 164 173 157 147 150 142 134 117 109 101 95 91 94 94 91 86 80 72 60 45 39 41 47 54 48 50 54
151 163 178 189 190 190 174 166 163 159 150 163 182 182 188 179 162 145 147 143 134 128 124 116 106 99 97 91 84 80 78 77 71 67 57 46 41 45 48 46 46 41 43
134 138 129 128 126 132 135 145 146 148 153 164 168 175 165 160 149 139 136 131 126 125 125 127 121 107 100 95 85 77 80 82 83 71 53 43 42 45 43 35 34 34 32
131 126 121 119 119 118 117 112 130 134 138 145 144 141 149 147 141 138 136 135 132 121 132 132 128 117 112 99 92 98 98 103 88 72 50 47 47 40 47 36 33 34 28
129 126 122 118 114 108 105 105 104 106 120 142 149 152 151 149 146 142 137 127 123 123 133 143 146 134 123 105 104 111 111 117 98 79 56 55 46 45 37 29 24 25 24
126 120 113 107 102 98 98 96 92 85 91 130 153 157 157 155 156 151 149 149 161 188 185 197 194 193 165 127 86 94 154 182 181 158 51 34 17 24 9 10 357 359 92
123 118 114 109 106 104 102 98 89 77 69 91 146 164 168 161 176 185 173 193 207 233 246 240 246 256 249 250 275 285 311 245 232 229 238 274 327 351 337 336 336 337 234
131 128 124 118 115 113 108 106 101 84 67 53 117 174 178 183 180 197 191 224 237 253 265 257 255 255 252 250 244 255 265 274 240 231 240 256 274 304 314 276 267 265 206
143 141 138 150 172 290 288 281 275 269 258 262 304 242 222 217 217 224 237 252 271 277 284 290 279 257 238 232 234 241 253 262 260 248 246 250 264 283 291 249 245 231 227
173 191 233 284 305 298 285 278 276 275 273 262 252 262 265 253 246 248 253 252 258 270 277 293 289 246 237 232 228 241 256 261 260 254 249 250 256 270 267 239 238 224 236
209 237 288 306 314 312 303 282 272 266 262 263 259 250 251 254 252 249 243 245 255 263 274 282 293 245 244 251 256 263 281 278 269 256 247 241 250 265 248 235 233 227 238
233 235 285 303 307 309 306 291 258 261 259 254 254 249 242 242 249 253 256 257 260 263 269 275 277 279 266 260 255 261 270 295 276 257 254 248 252 253 236 231 227 235 239
297 287 296 303 308 306 297 294 280 268 270 270 271 272 267 262 258 257 258 257 265 269 270 269 273 271 271 270 265 260 268 286 273 264 257 255 258 249 233 224 228 228 232